Regional Weather Roundup
Issued by NWS

Home | Current Version | Previous Version | Text Only | Print | Product List | Glossary Off
Versions: 1 2 3 4 5 6 7 8 9 10 11 12 13 14 15 16 17 18 19 20 21 22 23 24 25 26 27 28 29 30 31 32 33 34 35 36 37 38 39 40 41 42 43 44 45 46 47 48 49 50

713
ASUS45 KSLC 261510
RWRUT

UTAH REGIONAL WEATHER ROUNDUP
NATIONAL WEATHER SERVICE SALT LAKE CITY UT
900 AM MDT SUN MAR 26 2017

UTZ001>011-023>025-261600-

NORTHERN UTAH

CITY           SKY/WX    TMP DP  RH WIND       PRES   REMARKS
BRIGHAM CITY     N/A     36  34  93 CALM      30.07R
HILL AFB       SUNNY     37  32  80 E12       30.05R WCI  30
LOGAN          SUNNY     35  32  88 NW3       30.06R
OGDEN          MOSUNNY   37  34  89 S7        30.05R WCI  32
SALT LAKE CITY MOSUNNY   39  34  82 SE8       30.06R WCI  33
WENDOVER       SUNNY     39  30  70 E3        30.05R
HEBER CITY     MOSUNNY   32  30  93 CALM      30.06R FOG

$$

UTZ011>015-024>027-261600-

CENTRAL/NORTHEAST UTAH

CITY           SKY/WX    TMP DP  RH WIND       PRES   REMARKS
PROVO AIRPORT  CLOUDY    42  37  82 S5        30.08S
MOAB/CANYONLAN MOSUNNY   43  33  68 N3        29.95R
DELTA          CLOUDY    36  36 100 CALM      30.08S
PRICE          SUNNY     41  23  48 NW13      30.00R
RICHFIELD      SUNNY     34  34 100 S3        30.10R
ROOSEVELT      CLOUDY    41  34  75 NE5       30.02R
VERNAL         CLOUDY    43  25  49 E3        29.99R

$$

UTZ013>016-019>022-027-261600-

SOUTHERN UTAH

CITY           SKY/WX    TMP DP  RH WIND       PRES   REMARKS
BRYCE CANYON   SUNNY     32  24  72 NW12      30.05R WCI  23
CEDAR CITY     SUNNY     31  30  96 NE3       30.07R
MILFORD        MOSUNNY   30  29  96 S9        30.08S FOG     WCI  22
ST GEORGE      SUNNY     45  36  70 SE3       30.07R
HANKSVILLE     SUNNY     41  32  70 CALM      30.02R
KANAB          SUNNY     37  34  87 CALM      30.10R
BLANDING       SUNNY     41  37  86 CALM      30.04R

$$

REGIONAL REPORTS     COLORADO/ARIZONA

CITY           SKY/WX    TMP DP  RH WIND       PRES   REMARKS
CRAIG, CO      CLOUDY    37  28  70 W9        30.01R WCI  30
GRAND JUNCTION CLOUDY    47  36  65 NW7       29.95R
RIFLE, CO      CLOUDY    45  34  65 W12       29.96R
MONTROSE, CO   CLOUDY    41  38  89 SE3       29.98R
CORTEZ, CO     SUNNY     43  39  86 W8        29.97R
COLORADO CITY    N/A     37  34  87 CALM      30.08S
PAGE, AZ       SUNNY     49  33  54 N3        30.00R
GRAND CANYON   SUNNY     32  30  92 CALM      30.06R
KINGMAN, AZ    MOSUNNY   52  32  46 SE6       30.02R
FLAGSTAFF, AZ  MOSUNNY   39  22  50 NW3       30.04R

$$

REGIONAL REPORTS    NEVADA/IDAHO/WYOMING

CITY           SKY/WX    TMP DP  RH WIND       PRES   REMARKS
LAS VEGAS, NV  MOSUNNY   57  37  47 CALM      30.01R
ELY, NY        SUNNY     30  25  81 S9        30.05S WCI  22
ELKO, NV       PTSUNNY   33  28  81 E6        30.02R WCI  28
POCATELLO, ID  SUNNY     35  27  72 SW5       30.04R WCI  31
BURLEY, ID     SUNNY     38  29  70 SE6       29.99F WCI  33
FORT BRIDGER,    N/A     33  29  83 W12       30.06R WCI  25
EVANSTON, WY   MOSUNNY   28  25  88 SW7       30.05R WCI  21
ROCK SPRINGS,  SUNNY     34  27  75 SW5       30.01R WCI  30
KEMMERER, WY     N/A     27  25  93 NW7       30.02  WCI  19

$$




USA.gov is the U.S. government's official web portal to all federal, state and local government web resources and services.